Weather History for KLWA - January, 2014

Change the Weather History Date:

Sunday, January 19, 2014

  Actual Average (KBIV) Record (KBIV)
Temperature  
Mean Temperature 22 °F 26 °F  
Max Temperature 35 °F 32 °F 57 °F (1973)
Min Temperature 10 °F 20 °F -7 °F (1962)
Degree Days  
Heating Degree Days 42 39  
Month to date heating degree days 732  
Since 1 July heating degree days 3000  
Cooling Degree Days 0 0  
Month to date cooling degree days 0  
Year to date cooling degree days 0  
Moisture  
Dew Point 22 °F    
Average Humidity 84    
Maximum Humidity 93    
Minimum Humidity 75    
Precipitation  
Precipitation 0.00 in 0.06 in 0.99 in (1949)
Month to date precipitation 1.28  
Year to date precipitation 1.28  
Sea Level Pressure  
Sea Level Pressure 29.65 in    
Wind  
Wind Speed 10 mph (SW)    
Max Wind Speed 23 mph    
Max Gust Speed 34 mph    
Visibility 9 miles    
Events      
T = Trace of Precipitation, MM = Missing Value Source: NWS Daily Summary

Daily Weather History Graph

Daily Weather History Graph

Search for Another Location

Airport or City:

Trip Planner

Search our weather history database for the weather conditions in past years. The results will help you decide how hot, cold, wet, or windy it might be!

Date:

Astronomy

Jan. 19, 2014 Rise Set
Actual Time 8:09 AM EST 5:42 PM EST
Civil Twilight 7:38 AM EST 6:13 PM EST
Nautical Twilight 7:04 AM EST 6:47 PM EST
Astronomical Twilight 6:30 AM EST 7:21 PM EST
Moon 9:25 PM EST (1/19) 9:34 AM EST (1/19)
Length of Visible Light 10h 34m
Length of Day
9h 33m
Waning Gibbous, 89% of the Moon is Illuminated
Jan 19
Waning Gibbous
Jan 24
Last Quarter
Jan 30
New
Feb 6
First Quarter
Feb 14
Full

Hourly Weather History & Observations

Time (EST) Temp. Windchill Dew Point Humidity Pressure Visibility Wind Dir Wind Speed Gust Speed Precip Events Conditions
12:20 AM 10.4 °F - 8.6 °F 92% 29.82 in 5.0 mi Calm Calm - N/A   Overcast
12:40 AM 12.2 °F - 10.4 °F 92% 29.81 in 7.0 mi Calm Calm - N/A   Overcast
12:59 AM 14.0 °F - 12.2 °F 93% 29.79 in 7.0 mi Calm Calm - N/A   Overcast
1:18 AM 14.0 °F 8.2 °F 12.2 °F 93% 29.79 in 10.0 mi South 3.5 mph - N/A   Overcast
1:38 AM 15.8 °F 8.6 °F 14.0 °F 93% 29.78 in 10.0 mi SSE 4.6 mph - N/A   Overcast
1:59 AM 15.8 °F 10.2 °F 14.0 °F 93% 29.77 in 10.0 mi South 3.5 mph - N/A   Overcast
2:19 AM 17.6 °F 12.3 °F 15.8 °F 93% 29.77 in 10.0 mi South 3.5 mph - N/A   Overcast
2:38 AM 17.6 °F - 15.8 °F 93% 29.77 in 10.0 mi Calm Calm - N/A   Overcast
3:00 AM 17.6 °F 10.7 °F 15.8 °F 93% 29.77 in 7.0 mi SSW 4.6 mph - N/A   Overcast
3:20 AM 17.6 °F 10.7 °F 15.8 °F 93% 29.77 in 10.0 mi SSW 4.6 mph - N/A   Overcast
3:38 AM 19.4 °F 12.8 °F 17.6 °F 93% 29.77 in 10.0 mi SSW 4.6 mph - N/A   Overcast
3:59 AM 19.4 °F 12.8 °F 17.6 °F 93% 29.78 in 10.0 mi SSW 4.6 mph - N/A   Overcast
4:20 AM 19.4 °F 12.8 °F 17.6 °F 93% 29.77 in 10.0 mi SW 4.6 mph - N/A   Overcast
4:38 AM 21.2 °F 14.9 °F 17.6 °F 86% 29.77 in 10.0 mi SSW 4.6 mph - N/A   Overcast
5:00 AM 24.8 °F 11.9 °F 21.2 °F 86% 29.77 in 10.0 mi West 16.1 mph 20.7 mph N/A   Overcast
5:20 AM 24.8 °F 12.9 °F 21.2 °F 86% 29.76 in 10.0 mi WSW 13.8 mph 20.7 mph N/A   Overcast
5:38 AM 24.8 °F 13.4 °F 21.2 °F 86% 29.76 in 7.0 mi West 12.7 mph 21.9 mph N/A   Overcast
5:59 AM 24.8 °F 13.4 °F 19.4 °F 80% 29.75 in 10.0 mi WSW 12.7 mph 20.7 mph N/A   Overcast
6:20 AM 24.8 °F 13.4 °F 19.4 °F 80% 29.75 in 10.0 mi WSW 12.7 mph 21.9 mph N/A   Overcast
6:40 AM 24.8 °F 12.9 °F 19.4 °F 80% 29.74 in 10.0 mi SW 13.8 mph 19.6 mph N/A   Overcast
6:58 AM 23.0 °F 10.6 °F 19.4 °F 86% 29.72 in 10.0 mi SW 13.8 mph 19.6 mph N/A   Overcast
7:18 AM 23.0 °F 11.1 °F 19.4 °F 86% 29.70 in 10.0 mi SW 12.7 mph 21.9 mph N/A   Overcast
7:41 AM 23.0 °F 9.6 °F 19.4 °F 86% 29.72 in 10.0 mi SW 16.1 mph 21.9 mph N/A   Overcast
7:59 AM 23.0 °F 9.6 °F 19.4 °F 86% 29.72 in 7.0 mi SW 16.1 mph 21.9 mph N/A   Overcast
8:18 AM 21.2 °F 8.3 °F 19.4 °F 93% 29.71 in 5.0 mi SW 13.8 mph 26.5 mph N/A   Overcast
8:37 AM 21.2 °F 7.3 °F 19.4 °F 93% 29.70 in 5.0 mi SSW 16.1 mph 21.9 mph N/A   Overcast
8:58 AM 21.2 °F 10.1 °F 19.4 °F 93% 29.71 in 7.0 mi SW 10.4 mph 21.9 mph N/A   Overcast
9:20 AM 23.0 °F 9.6 °F 19.4 °F 86% 29.69 in 5.0 mi SW 16.1 mph 24.2 mph N/A   Overcast
9:38 AM 21.2 °F 6.4 °F 17.6 °F 86% 29.68 in 5.0 mi SW 18.4 mph 24.2 mph N/A   Overcast
9:58 AM 21.2 °F 6.0 °F 17.6 °F 86% 29.68 in 5.0 mi SW 19.6 mph 27.6 mph N/A   Overcast
10:19 AM 23.0 °F 8.7 °F 17.6 °F 80% 29.67 in 5.0 mi SW 18.4 mph 27.6 mph N/A   Haze
10:40 AM 23.0 °F 8.7 °F 17.6 °F 80% 29.67 in 4.0 mi SW 18.4 mph 29.9 mph N/A   Haze
10:59 AM 23.0 °F 7.6 °F 19.4 °F 86% 29.66 in 5.0 mi SW 21.9 mph 29.9 mph N/A   Haze
11:19 AM 23.0 °F 8.7 °F 19.4 °F 86% 29.68 in 5.0 mi WSW 18.4 mph 27.6 mph N/A   Haze
11:39 AM 24.8 °F 10.7 °F 19.4 °F 80% 29.67 in 5.0 mi SW 19.6 mph 28.8 mph N/A   Overcast
11:58 AM 24.8 °F 9.6 °F 21.2 °F 86% 29.67 in 5.0 mi WSW 23.0 mph 34.5 mph N/A   Overcast
12:20 PM 26.6 °F 13.4 °F 23.0 °F 86% 29.66 in 4.0 mi WSW 18.4 mph 33.4 mph N/A   Overcast
12:39 PM 26.6 °F 13.1 °F 23.0 °F 86% 29.65 in 7.0 mi WSW 19.6 mph 28.8 mph N/A   Overcast
12:58 PM 28.4 °F 14.7 °F 23.0 °F 80% 29.64 in 7.0 mi WSW 21.9 mph 28.8 mph N/A   Overcast
1:19 PM 28.4 °F 15.4 °F 23.0 °F 80% 29.63 in 5.0 mi WSW 19.6 mph 34.5 mph N/A   Haze
1:39 PM 28.4 °F 16.2 °F 23.0 °F 80% 29.62 in 10.0 mi WSW 17.3 mph 28.8 mph N/A   Overcast
1:58 PM 28.4 °F 17.0 °F 23.0 °F 80% 29.61 in 7.0 mi SW 15.0 mph 28.8 mph N/A   Overcast
2:19 PM 30.2 °F 20.2 °F 23.0 °F 75% 29.60 in 10.0 mi SW 12.7 mph 25.3 mph N/A   Overcast
2:39 PM 30.2 °F 20.2 °F 23.0 °F 75% 29.59 in 10.0 mi SW 12.7 mph 26.5 mph N/A   Overcast
2:59 PM 30.2 °F 17.8 °F 23.0 °F 75% 29.59 in 10.0 mi SW 19.6 mph 28.8 mph N/A   Mostly Cloudy
3:18 PM 30.2 °F 17.8 °F 23.0 °F 75% 29.58 in 10.0 mi SW 19.6 mph 29.9 mph N/A   Scattered Clouds
3:40 PM 30.2 °F 18.1 °F 23.0 °F 75% 29.58 in 10.0 mi SW 18.4 mph 29.9 mph N/A   Scattered Clouds
4:00 PM 30.2 °F 19.3 °F 23.0 °F 75% 29.59 in 10.0 mi SW 15.0 mph 27.6 mph N/A   Clear
4:18 PM 30.2 °F 18.1 °F 23.0 °F 75% 29.57 in 10.0 mi WSW 18.4 mph 32.2 mph N/A   Clear
4:38 PM 30.2 °F 19.3 °F 24.8 °F 80% 29.56 in 10.0 mi SW 15.0 mph 28.8 mph N/A   Clear
4:59 PM 30.2 °F 20.2 °F 24.8 °F 80% 29.56 in 10.0 mi SW 12.7 mph 23.0 mph N/A   Clear
5:18 PM 32.0 °F 21.6 °F 24.8 °F 75% 29.55 in 10.0 mi SW 15.0 mph 26.5 mph N/A   Clear
5:41 PM 32.0 °F 21.2 °F 24.8 °F 75% 29.55 in 10.0 mi SW 16.1 mph 24.2 mph N/A   Clear
5:58 PM 32.0 °F 23.0 °F 24.8 °F 75% 29.54 in 10.0 mi SW 11.5 mph 20.7 mph N/A   Clear
6:20 PM 32.0 °F 22.1 °F 26.6 °F 80% 29.54 in 10.0 mi SW 13.8 mph 21.9 mph N/A   Clear
6:39 PM 32.0 °F 21.2 °F 26.6 °F 80% 29.55 in 10.0 mi SW 16.1 mph 27.6 mph N/A   Clear
7:01 PM 32.0 °F 20.8 °F 26.6 °F 80% 29.56 in 10.0 mi WSW 17.3 mph 21.9 mph N/A   Clear
7:18 PM 32.0 °F 21.6 °F 26.6 °F 80% 29.56 in 10.0 mi SW 15.0 mph 25.3 mph N/A   Clear
7:39 PM 32.0 °F 22.1 °F 28.4 °F 87% 29.56 in 10.0 mi SW 13.8 mph 25.3 mph N/A   Clear
7:58 PM 32.0 °F 22.1 °F 28.4 °F 87% 29.56 in 10.0 mi WSW 13.8 mph 19.6 mph N/A   Clear
8:21 PM 33.8 °F 23.9 °F 28.4 °F 81% 29.55 in 10.0 mi WSW 15.0 mph 25.3 mph N/A   Clear
8:40 PM 33.8 °F 24.3 °F 28.4 °F 81% 29.54 in 10.0 mi SW 13.8 mph 20.7 mph N/A   Clear
9:00 PM 33.8 °F 23.5 °F 28.4 °F 81% 29.53 in 10.0 mi SW 16.1 mph 24.2 mph N/A   Clear
9:21 PM 33.8 °F 24.8 °F 30.2 °F 87% 29.52 in 10.0 mi SW 12.7 mph 20.7 mph N/A   Clear
9:41 PM 33.8 °F 24.3 °F 30.2 °F 87% 29.51 in 10.0 mi SW 13.8 mph 25.3 mph N/A   Clear
9:59 PM 33.8 °F 23.5 °F 30.2 °F 87% 29.50 in 10.0 mi SW 16.1 mph 23.0 mph N/A   Clear
10:19 PM 35.6 °F 26.2 °F 30.2 °F 81% 29.50 in 10.0 mi SW 15.0 mph 24.2 mph N/A   Scattered Clouds
10:41 PM 35.6 °F 26.2 °F 30.2 °F 81% 29.50 in 10.0 mi SW 15.0 mph 27.6 mph N/A   Mostly Cloudy
11:00 PM 35.6 °F 25.9 °F 30.2 °F 81% 29.49 in 10.0 mi WSW 16.1 mph 24.2 mph N/A   Overcast
11:21 PM 35.6 °F 25.5 °F 30.2 °F 81% 29.50 in 10.0 mi SW 17.3 mph 26.5 mph N/A   Overcast
11:41 PM 35.6 °F 25.9 °F 30.2 °F 81% 29.49 in 10.0 mi WSW 16.1 mph 27.6 mph N/A   Overcast